Current Version              Previous Version:    01  02  03  04  05  06  07  08  09  10  11  12  13  14  15  16  17  18  19  20  21  22  23  24  25  26  27  28  29  30  
   31  32  33  34  35  36  37  38  39  40  41  42  43  44  45  46  47  48  49  50  51  52  53  54  55  56  57  58  59  60  

[Printable]
317
ASUS44 KEWX 240802
RWRTX
SOUTH TEXAS REGIONAL WEATHER ROUNDUP
NATIONAL WEATHER SERVICE AUSTIN/SAN ANTONIO TX
300 AM CDT THU JUL 24 2014

NOTE: "FAIR" INDICATED FEW OR NO CLOUDS BELOW 12,000 FEET WITH NO
SIGNIFICANT WEATHER AND/OR OBSTRUCTIONS TO VISIBILITY.

* - THESE STATIONS ARE NOT NWS OR FAA STATIONS...AND ARE NOT SUBJECT
    TO NWS AND FAA QUALITY CONTROL.

TXZ171-172-183>190-240900-
TEXAS HILL COUNTRY AND EDWARDS PLATEAU

CITY           SKY/WX    TMP DP  RH WIND       PRES   REMARKS
JUNCTION       PTCLDY    79  66  64 E5        30.09F
*LLANO         MOCLDY    79  68  69 CALM      30.07S
BURNET         MOCLDY    77  67  71 S3        30.05F
*HORSESHOE BAY MOCLDY    76  66  69 CALM      30.03F
*KERRVILLE     CLEAR     77  67  71 CALM      30.08F
*FREDERICKSBRG MOCLDY    75  65  70 E5        30.08F
*ROCKSPRINGS   PTCLDY    81  64  57 E7        30.13F
*BOERNE STAGE  CLEAR     73  64  73 CALM      30.06F
*CASTROVILLE   CLEAR     81  67  62 CALM      30.03F
HONDO          CLEAR     78  68  71 S3        30.04F
*UVALDE        CLEAR     81  69  65 SE7       30.03F
DEL RIO        PTCLDY    84  65  52 E6        30.01S
LAUGHLIN AFB   NOT AVBL
CARRIZO SPRGS  MOCLDY    77  68  73 E5        30.00R
$$

TXZ173-191>194-202-209-217>225-228-240900-
CENTRAL AND SOUTH CENTRAL TEXAS

CITY           SKY/WX    TMP DP  RH WIND       PRES   REMARKS
GEORGETOWN     PTCLDY    75  70  83 CALM      30.03R
AUSTIN/BERGSTM MOCLDY    77  70  79 NE3       30.00F
AUSTIN/MABRY   PTCLDY    79  70  74 NE5       30.02S
*AUSTIN/EXEC   MOCLDY    75  72  88 CALM      30.02R
*LAGO VISTA    PTCLDY    77  67  72 E3        30.05R
SAN MARCOS     CLEAR     75  66  73 W5        30.01F
NEW BRAUNFELS  CLEAR     75  70  84 CALM      30.00F
RANDOLPH AFB   CLEAR     78  72  82 S5        30.02F
PT SAN ANTONIO CLEAR     80  70  70 SE6       30.01F
SAN ANTONIO    PTCLDY    81  72  74 S7        30.02F
STINSON FIELD  PTCLDY    81  71  71 SE3       30.00F
*PLEASANTON    PTCLDY    79  69  71 CALM      30.00F
*LA GRANGE     CLOUDY    80  76  86 CALM      29.97S
*GIDDINGS      CLOUDY    77  72  84 CALM      30.03S
*GONZALES      CLOUDY    79  74  84 S5        29.99S
$$

TXZ163>164-176>182-195>201-210>213-226-227-235-240900-
SOUTHEAST TEXAS

CITY           SKY/WX    TMP DP  RH WIND       PRES   REMARKS
COLLEGE STN    CLOUDY    78  67  68 CALM      29.99S
*BRYAN         CLOUDY    75  70  85 CALM      29.99S
*CALDWELL      CLOUDY    75  70  83 CALM      30.02F HAZE
*CROCKETT      CLOUDY    72  72 100 CALM      30.03S
*BRENHAM       CLOUDY    79  69  70 SE6       29.99S
HUNTSVILLE     MOCLDY    74  67  78 CALM      30.01R
CONROE         MOCLDY    74  70  87 SE3       29.99F
HOUSTON BUSH   MOCLDY    78  71  79 CALM      29.98S
HOUSTON HOBBY  MOCLDY    76  73  91 S5        29.97F
*HOUSTON SW AP PTCLDY    73  73 100 CALM      29.99R
PEARLAND       MOCLDY    77  73  87 SE7       29.99S
HOUSTON HOOKS  PTCLDY    79  73  82 CALM      29.99R
ELLINGTON FLD  MOCLDY    77  73  88 S3        29.99F
SUGAR LAND     PTCLDY    77  74  90 CALM      29.98S
*HOUSTON EXEC  CLOUDY    81  77  89 SE3       29.99F
*CLEVELAND MUN PTCLDY    73  70  89 CALM      30.00R
*WHARTON       MOCLDY    76  74  93 CALM      29.98F
$$

TXZ214>216-236>238-240900-
THE UPPER TEXAS COAST

CITY           SKY/WX    TMP DP  RH WIND       PRES   REMARKS
*ORANGE        PTCLDY    73  73 100 CALM      29.96F
PORT ARTHUR    PTCLDY    74  71  91 S5        29.95F
GALVESTON      CLOUDY    79  73  82 E6        29.97F
ANGLETON       CLOUDY    77  73  87 CALM      29.97F
*BAY CITY      MOCLDY    78  78 100 CALM      29.97S
PALACIOS       MOCLDY    83  76  79 S9        29.96F HX  91
$$

TXZ229>234-239>247-240900-
TEXAS COASTAL BEND AND RIO GRANDE PLAINS

CITY           SKY/WX    TMP DP  RH WIND       PRES   REMARKS
VICTORIA       MOCLDY    79  75  87 SW6       29.99F
*BEEVILLE      MOCLDY    78  75  91 CALM      29.99F
ROCKPORT       MOCLDY    81  76  84 S3        29.98F
*PORT ARANSAS  MOCLDY    81  78  90 S5        29.98F
*PORT LAVACA   MOCLDY    78  75  93 S6        29.98F
*INGLESIDE     MOCLDY    81  77  88 S3        29.98F
CORPUS CHRISTI MOCLDY    78  75  90 CALM      29.99F
CORPUS NAS     MOCLDY    82  78  88 S3        29.98F HX  91
*ROBSTOWN      MOCLDY    79  76  89 CALM      29.99F
ALICE          MOCLDY    78  76  93 SE5       29.99F
KINGSVILLE NAS MOCLDY    79  78  97 CALM      29.99F
COTULLA        MOCLDY    81  68  64 E8        30.01S
*FAITH RANCH   MOCLDY    84  70  61 SE8       30.00R
LAREDO         MOCLDY    85  70  60 SE9       30.01S
$$

TXZ248>255-240900-
DEEP SOUTH TEXAS

CITY           SKY/WX    TMP DP  RH WIND       PRES   REMARKS
BROWNSVILLE    PTCLDY    78  75  90 SE5       29.98F
PORT ISABEL    CLEAR     79  73  82 S6        29.97F
*SOUTH PADRE     N/A     79  77  94 S6        29.97F
HARLINGEN      CLEAR     76  74  93 CALM      29.97F
*HEBBRONVILLE  PTCLDY    79  71  75 SE6       30.01S
MCALLEN        CLEAR     80  76  87 SE6       29.97F
*WESLACO       CLEAR     79  74  82 S7        29.97F
FALFURRIAS     MOCLDY    67  67 100 CALM      29.99R
EDINBURG       CLEAR     81  74  81 S3        29.98S
*ZAPATA        NOT AVBL
$$

TXZ213>215-236>238-242>244-246-247-251-254-255-240900-
CMAN STATIONS

STATION/POSITION TIME  TEMP    WIND        PRES    WAVE
                       AIR SEA DIR/SP/G            HT/PER
                 (UTC) (F)     (DEG/KT/KT) (MB)    (FT/S)
SABINE PASS      0700   78 87   20/  5/  6 1014.9
SEA RIM ST PARK  0700   76      80/  4/  4 1016.0
NORTH JETTY/GLS  0700   80 92   90/  8/ 10   N/A
EAGLE POINT      0700   79 90  150/  5/  6 1014.9
MORGANS POINT    0700   79 91  200/  5/  6 1014.9
MISSION/ARANSAS  0700   83     150/  7     1017.0
PORT O`CONNOR    0700          170/  7/  9   N/A
PORT ARANSAS     0700   82 87  160/  7/  8 1016.1
MALAQUITE BEACH  0700   81 83  180/  6/  7 1014.9
BAFFIN BAY       0700   82 82  170/  7/ 10 1015.5
PORT ISABEL      0700   81 83  170/  4/  6 1015.7
$$

GMZ080-GMZ150>470-240900-
OFFSHORE BUOY REPORTS

STATION/POSITION TIME  TEMP    WIND        PRES    WAVE
                       AIR SEA DIR/SP/G            HT/PER
                 (UTC) (F)     (DEG/KT/KT) (MB)    (FT/S)
90 E PT ARANSAS  0800   82 84  180/  6/  8 1015.6    1/ 5
35 NE PT MANSFLD 0700   83 82  170/ 10/ 12 1015.1    1/ 3
200 E PT ISABEL  0700   83 86  160/  6/  8 1015.6    1/ 5
$$